| time (UTC) | temp C | wind direction | speed KPH | gust KPH | rain 1hr cm | rain 24hr cm | rain mn cm | humidity % | barometer mb |
| 20260905162349 | 22 | 63 | 11.3 | 14.5 | 0.00 | 0.00 | 0.00 | 87 | 1013.5 |
| 20260905160848 | 22 | 85 | 9.7 | 14.5 | 0.00 | 0.00 | 0.00 | 89 | 1013.6 |
| 20260905155349 | 22 | 96 | 9.7 | 14.5 | 0.00 | 0.05 | 0.00 | 88 | 1013.7 |
| 20260905153849 | 22 | 89 | 11.3 | 12.9 | 0.00 | 0.15 | 0.00 | 88 | 1013.5 |
| 20260905152351 | 22 | 85 | 11.3 | 16.1 | 0.00 | 0.23 | 0.00 | 88 | 1013.5 |
| 20260905150848 | 22 | 97 | 11.3 | 16.1 | 0.00 | 0.38 | 0.00 | 89 | 1013.2 |
| 20260905145352 | 22 | 99 | 9.7 | 12.9 | 0.00 | 0.56 | 0.00 | 89 | 1013.5 |
| 20260905143848 | 22 | 113 | 4.8 | 16.1 | 0.00 | 0.66 | 0.00 | 88 | 1012.9 |
| 20260905142349 | 22 | 66 | 1.6 | 16.1 | 0.00 | 0.76 | 0.00 | 87 | 1012.9 |
| 20260905140849 | 22 | 106 | 4.8 | 9.7 | 0.00 | 0.86 | 0.00 | 86 | 1012.5 |
| 20260905135348 | 22 | 88 | 4.8 | 11.3 | 0.00 | 0.89 | 0.00 | 84 | 1012.5 |
| 20260905133848 | 22 | 56 | 4.8 | 9.7 | 0.00 | 0.89 | 0.00 | 87 | 1012.9 |
| 20260905132349 | 22 | 72 | 4.8 | 12.9 | 0.00 | 0.89 | 0.00 | 87 | 1012.9 |
| 20260905130849 | 21 | 46 | 8.0 | 9.7 | 0.00 | 0.89 | 0.00 | 88 | 1012.9 |
| 20260905125352 | 21 | 4 | 8.0 | 11.3 | 0.00 | 0.89 | 0.00 | 89 | 1012.9 |
| 20260905123849 | 21 | 23 | 3.2 | 8.0 | 0.00 | 0.91 | 0.00 | 92 | 1012.9 |
| 20260905122349 | 20 | 19 | 8.0 | 9.7 | 0.00 | 0.91 | 0.00 | 93 | 1012.9 |
| 20260905120848 | 20 | 5 | 4.8 | 9.7 | 0.00 | 0.91 | 0.00 | 94 | 1012.9 |
| 20260905115349 | 20 | 352 | 4.8 | 9.7 | 0.00 | 0.91 | 0.00 | 96 | 1012.5 |
| 20260905113852 | 19 | 337 | 3.2 | 9.7 | 0.00 | 0.91 | 0.00 | 96 | 1012.8 |
| 20260905112348 | 18 | 358 | 3.2 | 8.0 | 0.00 | 0.91 | 0.00 | 97 | 1012.4 |
| 20260905110848 | 18 | 330 | 3.2 | 9.7 | 0.00 | 0.91 | 0.00 | 98 | 1012.5 |
| 20260905105349 | 18 | 313 | 1.6 | 3.2 | 0.00 | 0.91 | 0.00 | 99 | 1012.9 |
| 20260905103848 | 18 | 309 | 1.6 | 1.6 | 0.00 | 0.91 | 0.00 | 99 | 1013.2 |
| 20260905102349 | 18 | 306 | 0.0 | 0.0 | 0.00 | 0.91 | 0.00 | 99 | 1012.9 |
| 20260905100849 | 18 | 312 | 0.0 | 0.0 | 0.00 | 0.91 | 0.00 | 99 | 1012.9 |
| 20260905095349 | 18 | 317 | 0.0 | 0.0 | 0.00 | 0.91 | 0.00 | 99 | 1012.9 |
| 20260905093848 | 18 | 337 | 0.0 | 0.0 | 0.00 | 0.91 | 0.00 | 99 | 1012.5 |
| 20260905092349 | 18 | 342 | 0.0 | 0.0 | 0.00 | 0.91 | 0.00 | 99 | 1011.9 |
| 20260905090849 | 18 | 343 | 0.0 | 0.0 | 0.00 | 0.91 | 0.00 | 99 | 1011.9 |
| 20260905085349 | 18 | 339 | 0.0 | 0.0 | 0.00 | 0.91 | 0.00 | 99 | 1011.5 |
| 20260905083849 | 18 | 332 | 0.0 | 0.0 | 0.00 | 0.91 | 0.00 | 99 | 1011.5 |
| 20260905082349 | 18 | 331 | 0.0 | 0.0 | 0.00 | 0.91 | 0.00 | 99 | 1011.5 |
| 20260905080848 | 18 | 333 | 0.0 | 0.0 | 0.00 | 0.91 | 0.00 | 99 | 1011.5 |
| 20260905075349 | 18 | 337 | 0.0 | 0.0 | 0.00 | 0.91 | 0.00 | 99 | 1011.5 |
| 20260905073848 | 19 | 339 | 0.0 | 0.0 | 0.00 | 0.91 | 0.00 | 99 | 1011.9 |
| 20260905072350 | 19 | 339 | 0.0 | 0.0 | 0.00 | 0.91 | 0.00 | 99 | 1011.9 |
| 20260905070849 | 19 | 342 | 0.0 | 0.0 | 0.00 | 0.91 | 0.00 | 99 | 1011.5 |
| 20260905065349 | 19 | 339 | 0.0 | 0.0 | 0.00 | 0.91 | 0.00 | 99 | 1011.5 |
| 20260905063850 | 20 | 339 | 0.0 | 0.0 | 0.00 | 0.91 | 0.00 | 99 | 1011.8 |
| 20260905062351 | 20 | 337 | 0.0 | 0.0 | 0.00 | 0.91 | 0.00 | 99 | 1011.9 |
| 20260905060849 | 20 | 337 | 0.0 | 0.0 | 0.00 | 0.91 | 0.00 | 99 | 1011.9 |
| 20260905055350 | 20 | 338 | 0.0 | 0.0 | 0.00 | 0.91 | 0.00 | 99 | 1012.2 |
| 20260905053849 | 20 | 336 | 0.0 | 0.0 | 0.00 | 0.91 | 0.00 | 99 | 1011.9 |
| 20260905052349 | 20 | 337 | 0.0 | 0.0 | 0.00 | 0.91 | 0.00 | 99 | 1012.2 |
| 20260905050849 | 20 | 8 | 1.6 | 3.2 | 0.00 | 0.91 | 0.00 | 99 | 1012.2 |
| 20260905045349 | 20 | 332 | 3.2 | 3.2 | 0.00 | 0.91 | 0.00 | 99 | 1012.2 |
| 20260905043850 | 21 | 323 | 4.8 | 8.0 | 0.00 | 0.91 | 0.00 | 99 | 1012.5 |
| 20260905042349 | 21 | 331 | 4.8 | 8.0 | 0.00 | 0.91 | 0.00 | 99 | 1012.9 |
| 20260905040848 | 21 | 328 | 8.0 | 9.7 | 0.00 | 0.91 | 0.00 | 99 | 1012.9 |
| 20260905035349 | 21 | 332 | 4.8 | 8.0 | 0.00 | 0.91 | 0.91 | 99 | 1012.9 |
| 20260905033849 | 21 | 333 | 8.0 | 9.7 | 0.00 | 0.91 | 0.91 | 99 | 1012.9 |
| 20260905032349 | 21 | 333 | 9.7 | 11.3 | 0.00 | 0.91 | 0.91 | 99 | 1012.5 |
| 20260905030848 | 21 | 327 | 4.8 | 8.0 | 0.00 | 0.91 | 0.91 | 99 | 1012.5 |
| 20260905025349 | 21 | 332 | 4.8 | 9.7 | 0.00 | 0.91 | 0.91 | 99 | 1012.5 |
| 20260905023848 | 21 | 332 | 4.8 | 8.0 | 0.00 | 0.91 | 0.91 | 99 | 1012.9 |
| 20260905022348 | 22 | 321 | 3.2 | 4.8 | 0.00 | 0.91 | 0.91 | 99 | 1012.9 |
| 20260905020848 | 22 | 312 | 1.6 | 3.2 | 0.00 | 0.91 | 0.91 | 98 | 1012.5 |
| 20260905015348 | 22 | 319 | 1.6 | 3.2 | 0.00 | 0.91 | 0.91 | 98 | 1012.9 |
| 20260905013848 | 22 | 322 | 3.2 | 4.8 | 0.00 | 0.91 | 0.91 | 98 | 1012.6 |
| 20260905012351 | 22 | 323 | 3.2 | 4.8 | 0.00 | 0.91 | 0.91 | 98 | 1012.9 |
| 20260905010848 | 22 | 323 | 3.2 | 4.8 | 0.00 | 0.91 | 0.91 | 97 | 1012.8 |
| 20260905005348 | 22 | 323 | 3.2 | 3.2 | 0.00 | 0.91 | 0.91 | 97 | 1012.5 |
| 20260905003849 | 22 | 323 | 3.2 | 4.8 | 0.00 | 0.91 | 0.91 | 96 | 1012.5 |
| 20260905002349 | 22 | 303 | 3.2 | 3.2 | 0.00 | 0.91 | 0.91 | 97 | 1012.9 |
| 20260905000849 | 22 | 301 | 1.6 | 1.6 | 0.00 | 0.91 | 0.91 | 97 | 1012.5 |
| 20260904235350 | 23 | 322 | 1.6 | 3.2 | 0.00 | 0.91 | 0.91 | 95 | 1012.2 |
| 20260904233850 | 23 | 312 | 1.6 | 3.2 | 0.00 | 0.91 | 0.91 | 94 | 1012.2 |
| 20260904232349 | 23 | 323 | 0.0 | 1.6 | 0.00 | 0.91 | 0.91 | 93 | 1011.9 |
| 20260904230848 | 23 | 323 | 3.2 | 3.2 | 0.00 | 0.91 | 0.91 | 92 | 1012.2 |
| 20260904225349 | 23 | 326 | 3.2 | 4.8 | 0.00 | 0.91 | 0.91 | 92 | 1012.2 |
| 20260904223848 | 24 | 329 | 3.2 | 4.8 | 0.00 | 1.09 | 0.91 | 91 | 1012.2 |
| 20260904222349 | 25 | 293 | 0.0 | 1.6 | 0.00 | 1.65 | 0.91 | 91 | 1011.9 |
| 20260904220849 | 24 | 262 | 3.2 | 3.2 | 0.00 | 1.65 | 0.91 | 92 | 1011.9 |
| 20260904215348 | 24 | 244 | 4.8 | 9.7 | 0.00 | 2.46 | 0.91 | 93 | 1011.9 |
| 20260904213852 | 25 | 288 | 1.6 | 3.2 | 0.00 | 2.46 | 0.91 | 87 | 1011.5 |
| 20260904212349 | 25 | 305 | 0.0 | 3.2 | 0.00 | 2.46 | 0.91 | 85 | 1011.2 |
| 20260904210848 | 25 | 300 | 1.6 | 3.2 | 0.00 | 2.46 | 0.91 | 87 | 1010.8 |
| 20260904205349 | 25 | 314 | 3.2 | 4.8 | 0.00 | 2.46 | 0.91 | 84 | 1010.8 |
| 20260904203848 | 25 | 288 | 0.0 | 3.2 | 0.00 | 2.46 | 0.91 | 86 | 1011.0 |
| 20260904202349 | 25 | 289 | 1.6 | 4.8 | 0.00 | 2.46 | 0.91 | 84 | 1010.8 |
| 20260904200848 | 25 | 250 | 0.0 | 1.6 | 0.00 | 2.46 | 0.91 | 89 | 1010.8 |
| 20260904195348 | 24 | 253 | 8.0 | 9.7 | 0.00 | 2.46 | 0.91 | 93 | 1011.2 |
| 20260904193849 | 24 | 264 | 9.7 | 12.9 | 0.00 | 2.46 | 0.91 | 92 | 1011.5 |
| 20260904192349 | 25 | 259 | 4.8 | 11.3 | 0.00 | 2.49 | 0.91 | 92 | 1011.9 |
| 20260904190848 | 23 | 271 | 9.7 | 12.9 | 0.00 | 2.49 | 0.91 | 95 | 1012.2 |
| 20260904185348 | 23 | 256 | 11.3 | 16.1 | 0.00 | 2.62 | 0.91 | 93 | 1012.2 |
| 20260904183849 | 25 | 248 | 9.7 | 11.3 | 0.00 | 3.78 | 0.91 | 87 | 1012.2 |
| 20260904182349 | 25 | 296 | 4.8 | 4.8 | 0.00 | 3.78 | 0.91 | 87 | 1011.9 |
| 20260904180848 | 24 | 269 | 4.8 | 8.0 | 0.00 | 3.78 | 0.91 | 92 | 1012.5 |
| 20260904175349 | 22 | 269 | 4.8 | 12.9 | 0.00 | 3.78 | 0.91 | 98 | 1012.9 |
| 20260904173848 | 22 | 229 | 9.7 | 12.9 | 0.00 | 3.78 | 0.91 | 99 | 1012.9 |
| 20260904172349 | 21 | 274 | 12.9 | 19.3 | 0.00 | 3.78 | 0.91 | 99 | 1013.5 |
| 20260904170848 | 22 | 254 | 3.2 | 3.2 | 0.00 | 3.78 | 0.91 | 99 | 1013.2 |
| 20260904165349 | 22 | 229 | 4.8 | 8.0 | 0.05 | 3.78 | 0.91 | 99 | 1013.5 |
| 20260904163847 | 22 | 249 | 4.8 | 8.0 | 0.15 | 3.78 | 0.91 | 99 | 1013.9 |